Location: Borojevi?i
(45.0486°N, 16.2297°E)
Time: 07:21:53
(UTC+00:00)

Cosmos 2218 Rocket - Pass Details

Date: 08 August 2020
Orbit: 957 x 1005 km, 82.9° (Epoch: 26 September)

Event Time Altitude Azimuth Distance (km) Brightness Sun altitude
Rises 18:44:38 0° 189° (S) 3,646 6.8 -6.0°
Reaches altitude 10° 18:47:08 10° 190° (S) 2,697 6.1 -6.4°
Maximum altitude 18:53:19 83° 277° (W) 974 4.1 -7.3°
Drops below altitude 10° 18:59:30 10° 7° (N) 2,698 6.7 -8.3°
Sets 19:02:00 0° 8° (N) 3,648 7.4 -8.6°
